Location: RyutenAO
(34.8939°N, 134.0022°E)
Time: 08:05:18
(UTC+09:00)

CUBEBUG 2 - Visible Passes

Search period start: 23 March 2023 00:00
Search period end: 02 April 2023 00:00
Orbit: 581 x 686 km, 97.8° (Epoch: 22 March)

Date Brightness Start Highest point End Pass type
(mag) Time Alt. Az. Time Alt. Az. Time Alt. Az.
28 Mar ? 02:52:12 10° N 02:52:23 11° N 02:52:23 11° N visible
29 Mar ? 03:13:49 10° N 03:14:04 11° N 03:14:04 11° N visible
31 Mar ? 02:19:44 10° NNE 02:19:55 11° NNE 02:19:55 11° NNE visible
01 Apr ? 02:40:58 10° N 02:41:33 13° N 02:41:33 13° N visible
